Printer-friendly version

IAU Minor Planet Center

Minor Planet Center

MPEC 2006-H28 : 2006 FV4

The following Minor Planet Electronic Circular may be linked-to from your own Web pages, but must not otherwise be redistributed electronically.


Read MPEC 2006-H27 Read MPEC 2006-H29


M.P.E.C. 2006-H28                                Issued 2006 Apr. 22, 11:24 UT

     The Minor Planet Electronic Circulars contain information on unusual
         minor planets and routine data on comets.  They are published
   on behalf of Commission 20 of the International Astronomical Union by the
          Minor Planet Center, Smithsonian Astrophysical Observatory,
                          Cambridge, MA 02138, U.S.A.

                  Supported in part by the Brinson Foundation
                  Supported in part by the TABASGO Foundation
             Prepared using the Tamkin Foundation Computer Network

                              MPC@CFA.HARVARD.EDU
          URL http://cfa-www.harvard.edu/iau/mpc.html  ISSN 1523-6714

                                   2006 FV4

Additional Observations:
     K06F04V  C2005 03 08.30189 11 14 50.63 +38 01 51.2          20.5 R EH028703
     K06F04V  C2005 03 08.31041 11 14 50.38 +38 01 52.9          20.2 R EH028703
     K06F04V  C2005 03 08.31891 11 14 49.89 +38 01 54.0          19.0 R EH028703
     K06F04V  C2005 03 08.32741 11 14 49.51 +38 01 55.2          20.0 R EH028703
     K06F04V  C2006 03 29.32114 13 19 56.67 +00 07 10.6          18.8   EH028704
     K06F04V  C2006 03 29.33395 13 19 56.14 +00 07 09.6          18.8   EH028704
     K06F04V  C2006 03 29.36230 13 19 54.80 +00 07 05.8          19.1   EH028704
     K06F04V  C2006 03 29.38034 13 19 54.05 +00 07 03.1          18.9   EH028704
     K06F04V  C2006 04 08.28598 13 12 16.88 -00 16 27.3          18.8   EH028704
     K06F04V  C2006 04 08.29640 13 12 16.33 -00 16 28.3          18.7   EH028704
     K06F04V  C2006 04 08.30647 13 12 15.76 -00 16 31.2          18.7   EH028704
     K06F04V  C2006 04 08.31645 13 12 15.41 -00 16 34.1          18.9   EH028704
     K06F04V  C2006 04 19.22332 13 03 35.40 -00 48 12.8          18.2 R EH028699
     K06F04V  C2006 04 19.27811 13 03 32.83 -00 48 24.7                 EH028699
     K06F04V  C2006 04 19.30777 13 03 31.35 -00 48 29.5                 EH028699
     K06F04V  C2006 04 19.33922 13 03 29.80 -00 48 36.4          18.7 V EH028703
     K06F04V  C2006 04 19.34784 13 03 29.44 -00 48 37.8          18.8 V EH028703
     K06F04V  C2006 04 19.35643 13 03 28.98 -00 48 39.2          18.5 V EH028703
     K06F04V  C2006 04 19.36507 13 03 28.62 -00 48 41.3          18.7 V EH028703
     K06F04V  C2006 04 19.40068 13 03 26.89 -00 48 48.3          18.4 V EH028703
     K06F04V  C2006 04 19.41126 13 03 26.35 -00 48 50.4          18.2 V EH028703
     K06F04V  C2006 04 19.42184 13 03 25.84 -00 48 52.3          18.0 V EH028703
     K06F04V  C2006 04 19.43247 13 03 25.30 -00 48 54.5          18.1 V EH028703

Observer details:
699 Lowell Observatory-LONEOS.  Observers C. A. Onken, B. A. Skiff,
    W. D. Ferris, T. R. Grimstad, O. Matic.  Measurer B. W. Koehn.  0.59-m
    LONEOS Schmidt + CCD.
703 Catalina Sky Survey.  Observer A. R. Gibbs.  Measurers E. C. Beshore,
    E. J. Christensen, G. J. Garradd, A. R. Gibbs, A. D. Grauer, R. E. Hill,
    R. A. Kowalski, S. M. Larson, R. H. McNaught.  0.68-m Schmidt + CCD.
704 Lincoln Laboratory ETS, New Mexico.  Observers M. Blythe, F. Shelly,
    M. Bezpalko, R. Huber, L. Manguso, S. Adams, D. Torres, T. Brothers,
    S. Partridge.  Measurers J. Stuart, R. Sayer, J. B. Evans, H. Viggh.  1.0-m
    f/2.15 reflector + CCD.

Orbital elements:
2006 FV4
Epoch 2006 Mar. 6.0 TT = JDT 2453800.5                  MPC
M 352.58586              (2000.0)            P               Q
n   0.02728805     Peri.  217.88408     -0.49225963     +0.84058178
a  10.9266663      Node    25.21832     -0.61097099     -0.14868350
e   0.7023208      Incl.   32.04396     -0.61999590     -0.52087953
P  36.12           H   12.8           G   0.15           U   3
Residuals in seconds of arc
050308 703  0.1+  1.5-    060324 704  0.5+  0.1-    060419 699  0.2-  0.9+
050308 703  1.2+  0.2-    060324 704  0.2-  0.5-    060419 699  0.9+  0.3-
050308 703  0.5-  0.5+    060324 704  0.1+  0.5+    060419 699  0.1+  0.6+
050308 703  0.8-  1.2+    060329 704  0.4+  0.4-    060419 703  0.4-  0.3-
060323 704  0.0   0.4-    060329 704  1.1+  0.3+    060419 703  0.4+  0.0
060323 704  0.7-  0.4+    060329 704  0.3+  0.2+    060419 703  0.3-  0.3+
060323 704  1.5-  0.1-    060329 704  1.3+  0.2-    060419 703  0.5+  0.2-
060323 704  0.3+  0.8+    060408 704  0.5+  0.5+    060419 703  0.2+  0.2-
060323 704  0.9-  0.2+    060408 704  0.2-  1.1+    060419 703  0.3-  0.3-
060324 704  0.2-  0.1+    060408 704  1.4-  0.2-    060419 703  0.4-  0.1-
060324 704  0.5+  0.9-    060408 704  0.6+  1.6-    060419 703  0.9-  0.2-

Ephemeris:
2006 FV4                 a,e,i = 10.93, 0.70, 32                 q = 3.2526
Date    TT    R. A. (2000) Decl.     Delta      r     Elong.  Phase     V
2006 04 15    13 06.93   -00 35.1    2.737    3.727   169.0     2.9    18.1
2006 04 25    12 59.14   -01 08.0    2.734    3.691   159.0     5.6    18.3
2006 05 05    12 52.11   -01 47.9    2.759    3.655   148.2     8.4    18.4
2006 05 15    12 46.33   -02 35.5    2.809    3.621   137.7    10.8    18.5
2006 05 25    12 42.16   -03 30.7    2.880    3.588   127.5    12.9    18.6
2006 06 04    12 39.79   -04 33.3    2.968    3.556   117.8    14.6    18.7
2006 06 14    12 39.28   -05 42.9    3.068    3.525   108.5    15.9    18.8
2006 06 24    12 40.56   -06 58.9    3.177    3.496    99.8    16.7    18.9
2006 07 04    12 43.56   -08 20.8    3.290    3.468    91.5    17.0    19.0
2006 07 14    12 48.13   -09 48.1    3.404    3.442    83.6    17.1    19.0

Timothy B. Spahr             (C) Copyright 2006 MPC           M.P.E.C. 2006-H28

Read MPEC 2006-H27 Read MPEC 2006-H29


Our Web policy. Index to the CBAT/MPC/ICQ pages.


Valid HTML 4.01!